EN

Hourly Weather Laby

Today, 24 July, Saturday

Time Temperature Precipitation Wind Pressure Humidity
00:00 +17°C° 0 mm 2 mps 737 mmHg 83%
01:00 +17°C° 0 mm 2 mps 737 mmHg 85%
02:00 +16°C° 0 mm 2 mps 737 mmHg 86%
03:00 +16°C° 0 mm 2 mps 737 mmHg 87%
04:00 +16°C° 0 mm 1 mps 737 mmHg 88%
05:00 +16°C° 0 mm 1 mps 737 mmHg 89%
06:00 +16°C° 0 mm 1 mps 737 mmHg 85%
07:00 +17°C° 0 mm 2 mps 738 mmHg 81%
08:00 +18°C° 0 mm 2 mps 738 mmHg 77%
09:00 +19°C° 0.1 mm 2 mps 738 mmHg 74%
10:00 +20°C° 0.1 mm 2 mps 738 mmHg 70%
11:00 +21°C° 0.1 mm 2 mps 738 mmHg 67%
12:00 +23°C° 0.3 mm 2 mps 738 mmHg 64%
13:00 +24°C° 0.3 mm 2 mps 738 mmHg 61%
14:00 +24°C° 0.3 mm 2 mps 738 mmHg 58%
15:00 +24°C° 0.4 mm 2 mps 738 mmHg 58%
16:00 +25°C° 0.4 mm 2 mps 738 mmHg 58%
17:00 +25°C° 0.4 mm 2 mps 738 mmHg 57%
18:00 +23°C° 0.2 mm 1 mps 738 mmHg 63%
19:00 +21°C° 0.2 mm 1 mps 738 mmHg 69%
20:00 +20°C° 0.2 mm 1 mps 738 mmHg 75%
21:00 +19°C° 0 mm 1 mps 739 mmHg 76%
22:00 +16°C° 0 mm 0 mps 739 mmHg 77%
23:00 +15°C° 0 mm 0 mps 739 mmHg 78%

Tomorrow, 25 July, Sunday

Time Temperature Precipitation Wind Pressure Humidity
00:00 +15°C° 0 mm 0 mps 739 mmHg 79%
01:00 +15°C° 0 mm 0 mps 739 mmHg 80%
02:00 +14°C° 0 mm 0 mps 739 mmHg 80%
03:00 +14°C° 0 mm 0 mps 739 mmHg 81%
04:00 +14°C° 0 mm 0 mps 739 mmHg 82%
05:00 +14°C° 0 mm 0 mps 740 mmHg 83%
06:00 +16°C° 0 mm 0 mps 740 mmHg 79%
07:00 +18°C° 0 mm 0 mps 740 mmHg 74%
08:00 +20°C° 0 mm 0 mps 740 mmHg 70%
09:00 +21°C° 0.2 mm 0 mps 740 mmHg 65%
10:00 +24°C° 0.2 mm 1 mps 741 mmHg 61%
11:00 +26°C° 0.2 mm 1 mps 741 mmHg 56%
12:00 +26°C° 0.1 mm 1 mps 741 mmHg 54%
13:00 +26°C° 0.1 mm 2 mps 741 mmHg 53%
14:00 +27°C° 0.1 mm 2 mps 741 mmHg 52%
15:00 +26°C° 0 mm 2 mps 741 mmHg 55%
16:00 +25°C° 0 mm 2 mps 741 mmHg 58%
17:00 +25°C° 0 mm 2 mps 741 mmHg 62%
18:00 +24°C° 0 mm 2 mps 741 mmHg 65%
19:00 +22°C° 0 mm 1 mps 741 mmHg 69%
20:00 +21°C° 0 mm 1 mps 741 mmHg 73%
21:00 +21°C° 0 mm 1 mps 741 mmHg 73%
22:00 +20°C° 0 mm 1 mps 741 mmHg 74%
23:00 +19°C° 0 mm 2 mps 741 mmHg 74%

Day after tomorrow, 26 July, Monday

Time Temperature Precipitation Wind Pressure Humidity
00:00 +18°C° 0 mm 2 mps 741 mmHg 75%
01:00 +17°C° 0 mm 2 mps 741 mmHg 76%
02:00 +17°C° 0 mm 2 mps 741 mmHg 77%
03:00 +17°C° 0 mm 2 mps 741 mmHg 79%
04:00 +16°C° 0 mm 2 mps 741 mmHg 80%
05:00 +16°C° 0 mm 2 mps 741 mmHg 82%
06:00 +18°C° 0 mm 2 mps 742 mmHg 76%
07:00 +20°C° 0 mm 3 mps 742 mmHg 71%
08:00 +22°C° 0 mm 3 mps 742 mmHg 66%
09:00 +24°C° 0 mm 3 mps 742 mmHg 61%
10:00 +25°C° 0 mm 4 mps 742 mmHg 56%
11:00 +27°C° 0 mm 4 mps 742 mmHg 52%
12:00 +27°C° 0 mm 4 mps 742 mmHg 51%
13:00 +27°C° 0 mm 4 mps 742 mmHg 49%
14:00 +28°C° 0 mm 4 mps 742 mmHg 48%
15:00 +27°C° 0 mm 4 mps 741 mmHg 52%
16:00 +27°C° 0 mm 4 mps 741 mmHg 55%
17:00 +26°C° 0 mm 4 mps 741 mmHg 58%
18:00 +25°C° 0 mm 4 mps 741 mmHg 63%
19:00 +22°C° 0 mm 4 mps 741 mmHg 67%
20:00 +21°C° 0 mm 3 mps 741 mmHg 72%
21:00 +20°C° 0 mm 3 mps 741 mmHg 70%
22:00 +20°C° 0 mm 4 mps 741 mmHg 68%
23:00 +20°C° 0 mm 4 mps 741 mmHg 66%

27 July, Tuesday

Time Temperature Precipitation Wind Pressure Humidity
00:00 +19°C° 0 mm 4 mps 741 mmHg 69%
01:00 +18°C° 0 mm 3 mps 740 mmHg 72%
02:00 +18°C° 0 mm 3 mps 740 mmHg 75%
03:00 +17°C° 0 mm 3 mps 740 mmHg 77%
04:00 +17°C° 0 mm 3 mps 740 mmHg 79%
05:00 +17°C° 0 mm 3 mps 740 mmHg 80%
06:00 +19°C° 0 mm 4 mps 740 mmHg 76%
07:00 +20°C° 0 mm 5 mps 740 mmHg 71%
08:00 +22°C° 0 mm 5 mps 740 mmHg 67%
09:00 +23°C° 0 mm 5 mps 740 mmHg 65%
10:00 +23°C° 0 mm 5 mps 740 mmHg 63%
11:00 +24°C° 0 mm 6 mps 740 mmHg 62%
12:00 +26°C° 0 mm 6 mps 739 mmHg 60%
13:00 +26°C° 0 mm 6 mps 739 mmHg 58%
14:00 +27°C° 0 mm 6 mps 739 mmHg 56%
15:00 +27°C° 0 mm 6 mps 739 mmHg 55%
16:00 +28°C° 0 mm 5 mps 738 mmHg 54%
17:00 +29°C° 0 mm 5 mps 738 mmHg 54%
18:00 +27°C° 0.3 mm 5 mps 737 mmHg 62%
19:00 +25°C° 0.3 mm 4 mps 737 mmHg 69%
20:00 +22°C° 0.3 mm 4 mps 737 mmHg 77%
21:00 +21°C° 1.2 mm 4 mps 737 mmHg 83%
22:00 +21°C° 1.2 mm 4 mps 737 mmHg 88%
23:00 +20°C° 1.2 mm 5 mps 737 mmHg 93%

28 July, Wednesday

Time Temperature Precipitation Wind Pressure Humidity
00:00 +20°C° 1.2 mm 4 mps 736 mmHg 94%
01:00 +19°C° 1.2 mm 4 mps 736 mmHg 95%
02:00 +19°C° 1.2 mm 4 mps 735 mmHg 96%
03:00 +19°C° 0.2 mm 4 mps 735 mmHg 96%
04:00 +19°C° 0.2 mm 3 mps 735 mmHg 97%
05:00 +18°C° 0.2 mm 3 mps 734 mmHg 98%
06:00 +19°C° 0.2 mm 3 mps 734 mmHg 96%
07:00 +20°C° 0.2 mm 3 mps 734 mmHg 94%
08:00 +20°C° 0.2 mm 3 mps 734 mmHg 92%
09:00 +21°C° 0.1 mm 3 mps 734 mmHg 92%
10:00 +21°C° 0.1 mm 3 mps 734 mmHg 91%
11:00 +21°C° 0.1 mm 3 mps 734 mmHg 90%
12:00 +21°C° 0.5 mm 2 mps 734 mmHg 89%
13:00 +23°C° 0.5 mm 2 mps 733 mmHg 87%
14:00 +23°C° 0.5 mm 2 mps 733 mmHg 86%
15:00 +24°C° 0.8 mm 3 mps 733 mmHg 83%
16:00 +24°C° 0.8 mm 3 mps 733 mmHg 79%
17:00 +25°C° 0.8 mm 4 mps 733 mmHg 76%
18:00 +24°C° 0.1 mm 3 mps 733 mmHg 80%
19:00 +22°C° 0.1 mm 3 mps 733 mmHg 83%
20:00 +21°C° 0.1 mm 2 mps 733 mmHg 86%
21:00 +20°C° 0 mm 2 mps 733 mmHg 87%
22:00 +19°C° 0 mm 2 mps 733 mmHg 87%
23:00 +19°C° 0 mm 2 mps 734 mmHg 88%

29 July, Thursday

Time Temperature Precipitation Wind Pressure Humidity
00:00 +18°C° 0.1 mm 2 mps 734 mmHg 90%
01:00 +18°C° 0.1 mm 3 mps 734 mmHg 91%
02:00 +18°C° 0.1 mm 3 mps 734 mmHg 93%
03:00 +17°C° 0 mm 3 mps 734 mmHg 93%
04:00 +17°C° 0 mm 3 mps 734 mmHg 94%
05:00 +16°C° 0 mm 2 mps 734 mmHg 94%
06:00 +17°C° 0 mm 3 mps 735 mmHg 89%
07:00 +19°C° 0 mm 3 mps 735 mmHg 83%
08:00 +20°C° 0 mm 4 mps 735 mmHg 77%
09:00 +21°C° 0 mm 4 mps 736 mmHg 72%
10:00 +23°C° 0 mm 4 mps 736 mmHg 66%
11:00 +25°C° 0 mm 5 mps 736 mmHg 60%
12:00 +25°C° 0.3 mm 5 mps 736 mmHg 62%
13:00 +25°C° 0.3 mm 5 mps 736 mmHg 64%
14:00 +25°C° 0.3 mm 5 mps 736 mmHg 66%
15:00 +25°C° 0.2 mm 5 mps 736 mmHg 65%
16:00 +25°C° 0.2 mm 4 mps 736 mmHg 63%
17:00 +25°C° 0.2 mm 4 mps 736 mmHg 62%
18:00 +23°C° 0 mm 4 mps 736 mmHg 67%
19:00 +21°C° 0 mm 3 mps 736 mmHg 71%
20:00 +20°C° 0 mm 2 mps 737 mmHg 76%
21:00 +19°C° 0 mm 2 mps 737 mmHg 80%
22:00 +18°C° 0 mm 2 mps 737 mmHg 84%
23:00 +17°C° 0 mm 2 mps 737 mmHg 88%
Show more